Flag for United Kingdom Weather past 2 weeks in Bournemouth, England, United Kingdom

Now
36 °F

Sunny.


Feels Like: 32 °F
Forecast: 39 / 52 °F
Wind: 5 mph from North

Location: Bournemouth Airport

Current Time: Apr 27, 2015 at 7:21:58 AM

Latest Report: Apr 27, 2015 at 6:50 AM


Visibility: 10 mi

Pressure: 29.86 "Hg

Humidity: 87%

Dew point: 32 °F

Location of BournemouthLocation

Historic Weather in Bournemouth — Graph

°F

Bournemouth temperature yesterday

Maximum temperature yesterday: 54 °F (at 3:20 PM)
Minimum temperature yesterday: 46 °F (at 5:50 AM)
Average temperature yesterday: 50 °F

Past Weeks' High & Low Weather Summary

 TemperatureHumidityPressure
High72 °F (Apr 15, 1:20 PM)100% (Apr 13, 5:50 AM)30.51 "Hg (Apr 13, 5:50 AM)
Low32 °F (Apr 20, 5:50 AM)28% (Apr 21, 4:20 PM)29.68 "Hg (Apr 25, 5:20 AM)
Average53 °F69%30.15 "Hg
* Reported Apr 12 6:20 AM — Apr 27 6:20 AM, Bournemouth, Weather by CustomWeather, © 2015

Note: Actual official high and low records may vary slightly from our data, if they occured in-between our weather recording intervals... More about our weather records

Advertising

Bournemouth weather history for previous 24 hours

 ConditionsComfort  
Time TempWeatherWind HumidityBarometerVisibility
6:20 AM
Mon, Apr 27
34 °FClear.5 mph87%29.86 "Hg10 mi
5:50 AM32 °FClear.6 mph87%29.86 "Hg10 mi
5:20 AM32 °FClear.6 mph87%29.86 "Hg10 mi
9:20 PM
Sun, Apr 26
48 °FClear.3 mph71%29.77 "Hg10 mi
8:50 PM48 °FSunny.3 mph71%29.77 "Hg10 mi
8:20 PM50 °FSunny.5 mph67%29.77 "Hg10 mi
7:50 PM50 °FSunny.6 mph67%29.77 "Hg10 mi
7:20 PM50 °FSunny.10 mph67%29.77 "Hg10 mi
6:50 PM52 °FScattered clouds.12 mph62%29.74 "HgN/A
6:20 PM52 °FPartly sunny.10 mph62%29.77 "HgN/A
5:50 PM52 °FPassing clouds.12 mph62%29.74 "HgN/A
5:20 PM52 °FScattered clouds.14 mph67%29.74 "HgN/A
4:50 PM54 °FScattered clouds.13 mph63%29.74 "HgN/A
4:20 PM52 °FScattered clouds.14 mph72%29.74 "HgN/A
3:50 PM54 °FScattered clouds.12 mph67%29.74 "HgN/A
3:20 PM54 °FScattered clouds.12 mph72%29.74 "HgN/A
2:50 PM52 °FPartly sunny.10 mph72%29.74 "HgN/A
2:20 PM52 °FPartly sunny.13 mph72%29.77 "HgN/A
1:50 PM52 °FPartly sunny.12 mph77%29.77 "HgN/A
1:20 PM50 °FPartly sunny.13 mph82%29.77 "HgN/A
12:50 PM48 °FPartly sunny.13 mph82%29.77 "HgN/A
12:20 PM48 °FPartly sunny.13 mph87%29.77 "HgN/A
11:50 AM48 °FPartly sunny.12 mph87%29.77 "HgN/A
11:20 AM48 °FPartly sunny.12 mph87%29.77 "HgN/A
10:50 AM50 °FPartly sunny.13 mph88%29.74 "HgN/A
10:20 AM50 °FPartly sunny.10 mph88%29.74 "HgN/A
9:50 AM48 °FPartly sunny.9 mph87%29.74 "HgN/A
9:20 AM48 °FPartly sunny.10 mph94%29.74 "Hg4 mi
8:50 AM48 °FPartly sunny.8 mph94%29.74 "Hg4 mi
8:20 AM46 °FLow clouds.9 mph93%29.74 "Hg4 mi
7:50 AM46 °FFog.9 mph93%29.74 "Hg3 mi
7:20 AM46 °FFog.10 mph93%29.74 "Hg3 mi
Weather by CustomWeather, © 2015

See weather overviewHow to use our weather pages